Regional Weather Roundup
Issued by NWS New Orleans/Baton Rouge, LA

Home | Current Version | Previous Version | Text Only | Print | Product List | Glossary On
Versions: 1 2 3 4 5 6 7 8 9 10 11 12 13 14 15 16 17 18 19 20 21 22 23 24 25 26 27 28 29 30 31 32 33 34 35 36 37 38 39 40 41 42 43 44 45 46 47 48 49 50
000
ASUS44 KLIX 231805
RWRLIX
NEW ORLEANS REGIONAL WEATHER ROUNDUP
NATIONAL WEATHER SERVICE NEW ORLEANS LA
100 PM CDT WED JUL 23 2014

NOTE: "FAIR" INDICATES FEW OR NO CLOUDS BELOW 12,000 FEET WITH NO
      SIGNIFICANT WEATHER AND/OR OBSTRUCTIONS TO VISIBILITY.
      SKY/WX - SKY CONDITION AND SIGNIFICANT WEATHER.
      TMP - AIR TEMPERATURE.     DP    - DEWPOINT TEMPERATURE.
      RH  - RELATIVE HUMIDITY.   PRES  - PRESSURE.
      HI  - HEAT INDEX.          WCI   - WIND CHILL INDEX.

*  THESE STATIONS ARE NOT NWS OR FAA STATIONS AND ARE NOT UNDER
   NWS QUALITY CONTROL.

LAZ038-040-048-061>063-065>067-069-231900-
SOUTHEAST LOUISIANA

CITY           SKY/WX    TMP DP  RH WIND       PRES   REMARKS
N.O. AUDUBON     N/A     84  73  69 MISG        N/A
6HR MIN TEMP:  75; 6HR MAX TEMP:  87; 6HR PCP:  0.09;

N.O. INTL ARPT CLOUDY    81  73  76 S7        30.07R
6HR MIN TEMP:  74; 6HR MAX TEMP:  82; 6HR PCP:  0.07;

N.O. LAKEFRONT CLOUDY    81  73  76 S12       30.07S
6HR MIN TEMP:  73; 6HR MAX TEMP:  81; 6HR PCP:  0.05;

N.O. DOWNTOWN*   N/A     81  70  69 S9        30.07S
6HR MIN TEMP:  73; 6HR MAX TEMP:  82; 6HR PCP:  0.37;

SLIDELL        CLOUDY    84  71  65 S8        30.06S
6HR MIN TEMP:  71; 6HR MAX TEMP:  85;

BATON ROUGE    PTSUNNY   87  72  60 VRB3      30.05F
6HR MIN TEMP:  71; 6HR MAX TEMP:  88;

BOOTHVILLE     PTSUNNY   77  73  87 CALM      30.09S
6HR MIN TEMP:  73; 6HR MAX TEMP:  82; 6HR PCP:  0.58;

BELLE CHASSE   CLOUDY    78  70  76 S7        30.07R
6HR MIN TEMP:  72; 6HR MAX TEMP:  80; 6HR PCP:  0.52;

BOGALUSA*        N/A     86  72  62 CALM      30.07S
6HR MIN TEMP:  70; 6HR MAX TEMP:  86;

GALLIANO*      NOT AVBL
NEW ROADS*       N/A     86  71  61 NE6       30.05F
6HR MIN TEMP:  71; 6HR MAX TEMP:  86;

GONZALES*        N/A     88  74  64 NE5       30.04S HX  97
6HR MIN TEMP:  72; 6HR MAX TEMP:  88;

HAMMOND*       PTSUNNY   86  72  62 SE9       30.07S
HOUMA*         PTSUNNY   81  72  74 S5        30.07S
PORT FOURCHON* CLOUDY    77  72  83 NE12G17   30.08F

$$

MSZ070-080>082-231900-
SOUTHERN MISSISSIPPI

CITY           SKY/WX    TMP DP  RH WIND       PRES   REMARKS
MCCOMB         MOSUNNY   86  68  54 VRB6      30.07S
6HR MIN TEMP:  67; 6HR MAX TEMP:  86;

GULFPORT       CLOUDY    85  72  65 SE9       30.06F
6HR MIN TEMP:  73; 6HR MAX TEMP:  87;

BILOXI         CLOUDY    83  72  70 SE9       30.07S
6HR MIN TEMP:  71; 6HR MAX TEMP:  84;

PASCAGOULA     CLOUDY    80  73  79 S7        30.08R
6HR MIN TEMP:  71; 6HR MAX TEMP:  84; 6HR PCP: TRACE;

STENNIS ARPT*  MOSUNNY  N/A N/A N/A S7        30.06F

$$

COASTAL OBSERVATIONS
LAKE AND NEARSHORE STATIONS

STATION/POSITION TIME  TEMP    WIND        PRES    WAVE
                       AIR SEA DIR/SP/G            HT/PER
                 (UTC) (F)     (DEG/KT/KT) (MB)    (FT/S)
PASCAGOULA       1800   80     180/  8/ 12 1018.0
WAVELAND YACHT   1800   81     170/ 10/ 11 1017.6
GRAND ISLE       1800   73 84  100/  4/  5 1019.6
SOUTHWEST PASS   1800   86 84   60/  3/  5 1018.9
NEW CANAL        1800   81 81  160/  4/  9 1018.6
SHELL BEACH      1800   77 80  150/  8/ 10 1018.6

OFFSHORE STATIONS

STATION/POSITION TIME  TEMP    WIND        PRES    WAVE
                       AIR SEA DIR/SP/G            HT/PER
                 (UTC) (F)     (DEG/KT/KT) (MB)    (FT/S)
64 S DAUPHIN ISL 1750   81 85  240/ 10/ 12 1018.7

$$



USA.gov is the U.S. government's official web portal to all federal, state and local government web resources and services.